Theta_e
319 319 319 319 319 319 319 320 320 321 322 322 322 322 323 323 323 323 323 323 324 323 323 323 323 324 323 323 323 323 319 316 314 312 313 316 325 349 347 346 343 345 345 324 316 319 313 315 321 327 328 331 332 330 334 336 337 338 326 323 319 321 321 326 326 328 330 331 333 337 339 336 329 337 340 344 340 340 337 336 340 342 340 341 340 341 342 343
319 319 319 319 319 319 319 320 320 321 321 322 322 323 323 322 323 322 322 323 323 323 323 323 323 324 323 323 323 322 318 315 313 314 314 326 336 341 342 345 344 343 340 319 314 316 316 314 321 326 326 326 336 329 333 327 335 329 325 324 318 324 325 330 333 333 331 330 334 335 337 337 334 338 342 337 333 336 333 334 336 337 339 341 339 340 341 341
319 318 318 318 318 319 319 320 320 321 321 321 322 322 322 322 322 322 322 322 322 322 322 322 323 323 323 323 322 322 318 315 316 313 319 336 338 344 344 342 343 344 323 315 316 318 322 322 325 326 326 325 331 326 330 326 330 330 323 316 322 329 331 338 338 334 335 336 334 334 336 336 337 338 340 336 332 334 334 330 333 333 334 336 337 339 340 340
318 318 318 318 318 319 319 320 320 320 320 321 321 321 322 322 322 322 322 321 322 322 322 322 323 323 323 324 323 320 316 313 312 322 331 348 343 342 344 348 344 342 324 317 317 318 326 329 327 327 325 325 328 328 324 326 324 328 322 317 323 330 327 335 340 338 335 338 336 336 337 335 337 338 339 336 331 333 336 338 334 333 335 336 337 338 339 338
317 318 318 318 318 318 319 319 320 320 320 321 321 321 321 321 321 321 321 320 321 321 322 322 323 323 323 323 320 318 313 310 316 325 332 352 352 346 345 350 348 330 322 317 316 316 317 319 328 327 326 321 324 323 323 326 327 325 323 326 333 333 328 337 338 339 335 340 336 337 335 334 341 341 336 339 331 327 334 336 338 338 338 337 337 337 338 338
317 317 317 317 318 318 318 319 320 320 320 320 320 321 321 320 321 320 320 320 321 321 321 322 323 324 324 322 320 318 313 297 318 320 344 346 350 349 345 347 347 330 322 315 313 314 316 319 321 324 323 322 322 316 321 324 328 316 321 321 333 332 332 334 335 335 337 338 336 334 337 339 336 336 337 336 336 336 343 340 340 340 340 340 339 338 337 337
317 317 317 317 317 317 318 318 319 319 319 319 319 320 320 320 320 319 319 320 321 321 322 323 324 324 324 321 318 315 310 314 322 323 357 353 357 353 349 345 344 331 324 314 312 312 314 317 321 323 324 322 321 320 322 323 325 320 314 319 331 331 335 335 332 336 337 335 338 340 338 334 334 331 339 335 338 345 343 343 341 341 342 341 338 337 337 337
316 317 317 317 317 317 317 318 318 319 319 318 319 319 319 319 319 320 320 320 322 322 323 323 324 324 323 317 314 313 312 314 321 333 356 352 353 349 346 336 334 327 322 315 312 311 315 316 319 324 322 319 320 319 321 320 322 318 316 319 328 331 335 335 334 335 338 339 340 339 334 333 336 335 339 336 339 343 344 342 342 341 341 340 338 337 337 337
316 316 317 317 317 317 317 318 318 318 318 318 318 318 318 318 318 319 320 321 323 324 324 325 324 324 323 317 307 305 308 323 326 335 345 345 342 347 336 330 332 321 318 317 315 316 318 318 322 324 317 319 323 319 319 316 311 318 318 320 322 329 335 334 334 336 335 337 337 333 332 335 338 340 335 340 339 342 341 342 340 340 339 339 338 338 337 337
316 316 316 316 317 317 317 317 318 318 318 318 318 317 317 318 318 319 319 321 324 326 326 325 325 323 319 314 313 306 313 318 325 339 345 339 339 341 337 330 328 319 315 315 316 317 318 321 324 326 324 320 322 317 318 315 311 318 318 320 319 323 332 333 333 333 335 338 336 330 331 333 337 335 329 337 340 340 339 338 339 339 338 339 338 338 338 338
316 316 316 316 316 316 317 317 318 318 318 317 317 317 316 317 317 318 319 321 325 326 325 325 325 321 312 314 308 309 318 317 319 318 324 328 335 336 332 330 324 318 315 314 316 321 322 322 326 325 323 317 319 315 315 315 317 315 315 313 315 324 332 332 334 335 335 333 333 333 332 334 337 334 330 335 339 340 338 336 336 336 338 339 339 339 339 339
315 316 316 316 316 316 317 317 317 317 317 317 316 316 317 317 317 317 319 321 325 328 326 324 325 320 314 311 310 311 320 315 317 317 320 319 325 329 331 329 321 319 315 313 318 322 323 323 325 323 313 322 312 316 312 316 314 313 313 308 311 315 316 332 331 332 334 332 334 334 331 328 329 327 337 336 339 339 338 335 335 336 337 338 338 339 339 339
315 315 315 315 316 316 316 316 316 317 316 316 316 315 316 316 316 317 319 321 326 327 327 326 325 321 315 310 316 324 324 315 317 320 317 317 321 324 325 326 321 319 317 315 316 318 320 321 323 320 321 318 315 308 313 316 312 312 310 307 307 308 308 324 331 334 331 333 334 332 315 319 326 331 334 337 337 337 334 333 334 335 336 336 337 338 338 340
316 315 315 315 315 315 316 316 316 316 315 315 315 314 314 314 315 317 319 321 325 327 325 326 323 319 316 314 324 319 318 314 319 318 314 319 317 321 322 325 323 320 319 317 318 320 322 323 323 322 323 317 313 320 315 314 315 303 308 309 302 303 302 313 315 330 327 333 333 331 313 317 326 329 334 336 339 335 331 332 333 334 335 336 337 337 337 339
315 315 315 315 315 315 315 315 315 314 315 314 313 313 313 313 316 319 321 320 326 327 327 326 322 316 314 318 330 322 344 318 315 316 317 315 314 318 319 323 325 321 320 320 321 327 330 328 323 318 314 320 318 313 308 308 309 307 302 298 302 300 302 310 315 319 322 327 334 327 314 318 323 329 334 336 337 336 331 331 333 334 334 335 336 336 337 338
315 314 315 315 315 315 315 314 314 314 314 313 312 312 313 315 319 321 322 322 325 327 324 319 320 317 315 312 318 329 318 312 312 314 315 317 312 311 319 319 323 326 324 323 328 330 329 327 317 315 314 315 311 306 304 303 302 305 300 300 299 301 302 306 311 315 318 326 329 325 316 321 323 331 333 336 336 334 332 331 332 334 334 335 336 336 336 337
314 314 314 314 315 315 315 314 313 314 313 312 312 312 315 318 322 323 324 324 325 326 320 316 320 321 311 317 322 310 310 314 316 315 315 314 313 312 315 318 317 320 324 325 327 327 325 321 324 315 315 307 308 307 300 297 298 298 301 297 302 301 303 301 310 313 316 326 321 326 320 322 325 329 333 335 335 333 330 330 331 334 332 334 335 335 336 336
314 314 314 314 315 315 314 313 313 313 312 311 311 312 312 317 321 321 325 324 322 319 321 324 320 316 313 322 310 307 311 312 312 316 314 314 313 313 312 317 317 317 320 318 323 319 321 314 316 306 307 307 306 303 298 294 298 297 297 297 299 303 303 303 304 310 313 322 322 322 320 321 324 328 331 332 335 334 332 331 331 334 333 334 334 335 336 336
314 314 314 314 314 314 314 314 313 312 311 311 313 316 320 318 318 318 315 320 318 315 312 314 315 306 295 304 310 310 310 311 311 312 311 313 314 313 313 318 319 314 311 311 314 316 315 311 311 305 301 302 303 305 303 304 305 302 302 300 301 299 300 302 307 311 313 316 320 320 316 319 323 326 328 331 334 333 332 333 334 335 333 334 334 335 335 336
314 314 314 314 314 314 314 313 312 310 310 309 309 310 315 308 311 313 313 316 312 313 313 313 319 315 309 306 307 309 312 313 307 310 312 317 315 309 309 315 315 314 310 306 310 312 314 304 301 300 302 305 308 308 308 309 308 307 305 302 300 300 303 307 309 311 313 315 317 319 319 321 323 325 328 330 331 332 332 332 333 333 332 336 333 334 335 335
314 314 314 314 313 313 313 312 311 310 310 308 309 309 302 301 298 296 302 304 307 309 309 310 309 305 304 306 308 308 303 306 309 309 312 317 314 309 306 311 310 305 307 311 308 313 311 302 303 306 308 308 309 310 309 307 307 305 303 302 301 303 300 305 308 311 313 314 314 318 318 321 322 325 328 330 330 329 331 332 332 334 332 335 335 334 335 335
314 314 313 313 313 312 312 311 311 310 309 309 311 306 307 307 309 310 305 298 305 308 308 308 308 305 308 308 309 310 306 302 304 309 313 315 310 305 309 309 307 303 308 309 308 304 302 300 305 309 311 311 310 309 308 306 304 304 301 300 300 300 304 306 307 309 312 310 311 316 315 319 323 325 328 328 329 330 332 333 332 334 333 334 335 336 337 339
314 313 313 313 312 311 311 310 309 309 309 313 310 313 308 312 314 314 309 303 300 307 306 306 303 304 305 309 309 307 301 300 300 308 311 315 310 308 309 304 303 305 307 307 301 301 299 302 308 311 311 309 308 308 306 304 304 301 299 297 296 302 300 295 304 308 311 309 308 316 315 319 323 326 327 329 329 329 332 333 334 336 334 333 335 337 336 337
313 313 313 313 312 311 311 309 308 312 315 312 311 310 313 314 314 314 306 298 298 305 308 308 307 305 305 304 306 304 301 302 303 306 314 309 304 312 308 308 304 303 301 305 304 301 301 307 311 310 309 308 306 306 304 301 298 302 302 300 299 301 302 301 300 305 307 308 311 313 313 317 320 320 323 327 330 330 331 333 334 338 337 337 338 338 339 338
313 314 314 313 311 311 308 308 312 311 312 311 312 313 315 316 316 313 303 300 300 300 310 309 310 308 307 313 309 305 304 304 305 308 312 310 306 305 304 309 308 303 304 305 305 303 303 308 310 309 307 307 305 303 303 302 297 299 303 303 303 304 302 303 304 302 298 298 306 307 300 306 318 320 321 324 326 326 329 329 334 336 336 336 335 337 339 340
313 313 314 312 312 310 309 310 312 310 311 310 311 315 315 315 316 315 304 296 292 301 305 298 306 301 308 305 309 305 305 300 307 309 312 311 312 306 305 302 308 302 307 307 304 303 304 308 307 306 306 305 305 303 305 304 298 297 300 306 305 304 304 303 302 301 293 293 302 310 298 297 316 316 319 322 324 324 327 328 335 336 335 335 335 336 337 338
313 313 313 311 311 308 306 307 311 312 309 310 314 315 315 315 323 311 302 292 287 300 297 302 302 302 307 305 305 308 290 295 308 311 309 312 305 311 300 299 304 307 307 306 303 299 307 306 305 306 305 304 303 301 305 305 299 297 306 307 305 304 303 302 302 300 296 303 304 304 303 297 300 314 320 321 321 322 323 327 334 335 335 334 335 337 338 338
313 313 311 310 309 309 306 307 307 309 311 315 317 315 315 318 318 311 299 288 286 303 297 299 303 308 305 304 305 300 300 306 299 304 310 308 308 306 302 299 299 300 303 302 293 304 307 304 304 303 303 302 299 304 306 306 302 302 307 308 306 306 304 304 301 298 298 297 292 298 302 296 298 310 321 320 317 319 320 325 332 333 334 334 335 338 340 340
313 312 311 310 309 308 310 308 311 310 316 318 317 316 316 316 311 301 293 286 299 301 307 299 309 305 305 309 303 303 302 305 298 304 310 311 310 308 297 301 301 301 303 302 295 300 305 307 306 306 303 299 304 306 305 307 302 306 308 309 307 306 306 304 299 299 300 295 291 295 303 293 295 306 315 318 318 317 320 327 331 332 333 333 334 337 341 340
313 311 311 310 308 312 316 312 310 316 317 318 317 316 315 311 304 293 290 283 302 292 302 301 301 299 303 299 299 303 300 302 303 305 307 304 306 307 305 307 301 300 299 303 301 302 304 310 312 305 303 306 305 306 308 306 306 309 307 305 304 303 301 301 301 301 297 291 291 298 300 297 289 301 310 313 316 320 321 325 330 332 333 334 334 336 339 338
311 310 309 309 305 311 311 306 310 316 319 319 316 314 310 306 296 290 287 292 301 298 303 300 298 302 299 298 294 301 302 302 302 303 299 304 301 303 305 299 304 297 295 296 296 301 302 303 303 306 310 310 309 306 309 309 308 306 302 300 299 298 299 298 299 300 292 288 296 299 298 299 289 294 305 310 318 324 323 323 326 330 331 332 333 335 337 338
309 308 309 308 310 312 307 307 313 316 318 317 314 308 304 294 297 288 290 302 291 295 297 297 301 301 300 301 299 298 297 300 302 301 297 297 297 295 296 292 296 291 288 290 289 297 296 297 303 304 312 308 308 303 302 305 306 303 300 300 294 291 292 288 292 288 288 287 297 299 299 295 293 297 302 306 309 325 326 326 327 331 331 332 333 335 336 337
308 308 308 310 312 311 312 312 314 316 318 315 310 306 297 293 288 294 294 297 290 298 295 302 298 299 299 297 296 300 300 295 299 299 300 300 296 298 302 299 301 297 289 296 294 293 292 299 300 302 305 309 307 298 298 297 300 300 298 298 293 288 288 283 288 290 290 296 300 299 301 293 298 299 305 305 308 314 328 329 330 332 332 331 333 334 336 337
307 308 308 315 316 316 316 318 318 320 316 313 307 301 297 290 290 302 295 296 295 302 301 298 299 300 299 293 297 299 294 300 298 297 300 296 295 295 298 301 301 298 297 295 290 291 286 288 294 299 296 306 306 304 303 300 299 299 303 298 295 294 291 286 288 285 288 290 296 301 296 290 292 293 306 307 309 310 329 331 331 332 332 333 334 335 336 336
307 308 312 316 317 319 319 318 317 319 314 308 301 298 292 294 295 292 293 294 298 300 298 301 298 297 296 297 300 300 297 294 300 298 296 294 292 295 296 297 300 300 297 290 295 295 293 292 299 302 302 303 303 308 308 305 302 302 303 303 296 294 298 289 293 293 294 293 294 295 294 297 297 304 308 308 309 309 313 330 331 330 331 332 332 332 334 335
309 317 320 318 320 322 320 319 319 318 310 304 298 295 294 294 291 296 294 300 299 296 297 299 298 294 293 293 299 297 300 295 296 296 295 295 296 296 300 299 298 299 294 289 293 288 292 290 300 300 304 302 302 306 307 307 293 300 301 295 298 303 299 296 298 299 297 293 290 301 299 299 303 304 305 306 307 307 308 321 329 329 331 331 330 331 333 335
311 316 316 319 319 317 320 320 318 317 312 302 297 295 299 298 299 298 301 298 299 299 297 290 293 292 292 292 294 296 297 298 296 294 291 297 292 298 298 298 301 299 299 294 292 296 287 288 297 299 298 303 305 305 306 307 306 301 295 298 305 306 303 299 290 294 292 288 292 298 295 296 296 292 304 304 303 305 306 311 329 330 331 329 330 331 333 335
310 313 317 319 320 318 315 323 315 311 306 302 297 299 303 296 301 299 301 300 300 300 294 293 293 297 293 293 292 295 297 293 293 295 292 296 290 300 297 297 301 299 299 300 293 293 294 286 294 299 300 301 304 304 302 307 308 302 300 307 297 292 291 296 297 287 288 288 290 294 297 298 298 299 302 301 303 304 305 311 328 328 330 329 330 331 333 336
311 312 312 317 322 315 317 321 318 311 304 299 299 297 299 298 301 299 301 300 301 298 293 295 292 296 294 291 293 296 297 290 293 291 289 293 289 297 296 298 296 299 299 299 294 294 295 286 289 298 297 299 300 300 293 298 305 307 307 303 304 298 295 293 298 295 294 288 292 290 295 291 304 303 302 303 304 304 306 306 326 328 330 330 330 331 334 335
313 311 306 318 319 317 322 319 308 308 302 297 298 296 301 298 300 301 301 300 297 296 294 294 296 292 294 294 295 291 295 295 292 293 293 295 291 298 296 299 296 297 298 300 296 298 290 295 283 292 299 298 291 297 294 295 294 297 298 297 299 302 303 299 301 296 292 290 289 290 288 296 302 307 307 306 305 306 306 308 326 328 330 330 331 332 334 335
315 309 309 321 316 325 318 309 303 300 301 302 300 298 299 297 300 301 302 302 300 302 297 296 295 292 294 293 293 296 293 294 294 291 294 293 293 289 297 297 298 296 298 297 296 296 292 292 287 291 292 291 293 299 298 298 299 297 296 294 296 294 294 291 289 300 297 293 287 289 289 297 305 312 311 309 313 308 308 309 317 327 329 330 332 333 333 334
310 304 303 317 317 317 311 302 303 306 300 297 295 298 298 305 299 299 301 301 300 297 302 299 299 296 294 294 294 294 293 292 293 293 294 292 295 294 296 300 298 299 295 292 293 298 296 295 290 287 290 291 295 298 301 301 301 300 299 297 299 297 298 294 285 293 296 296 298 296 293 296 307 310 311 311 310 310 309 310 312 326 329 331 333 334 334 334
308 305 315 319 316 312 307 301 304 301 298 300 303 301 302 300 299 300 299 300 298 300 298 297 296 295 296 294 295 294 295 292 293 291 294 294 295 297 298 299 299 298 298 295 298 297 304 293 289 290 293 296 298 300 301 300 299 297 299 299 298 296 298 296 296 297 293 295 292 294 293 295 306 308 310 312 315 316 313 312 311 318 329 331 333 334 333 333
308 310 311 313 317 315 304 294 295 297 298 301 300 298 301 300 298 297 297 298 297 297 295 296 297 298 295 297 295 292 295 290 294 293 292 295 293 300 299 299 299 296 297 294 292 296 289 293 289 285 285 287 290 294 295 299 299 296 296 299 299 300 302 301 300 301 296 295 295 294 289 294 304 312 312 314 317 320 319 313 313 311 315 321 331 333 333 333
308 313 313 310 316 310 301 300 298 297 296 297 298 296 298 297 299 298 298 297 299 298 297 295 297 298 296 297 296 296 296 293 291 295 295 295 294 300 300 299 300 297 300 302 304 299 294 291 288 282 281 279 280 281 285 288 292 295 297 297 298 298 297 297 294 294 287 295 294 293 294 300 305 309 312 316 318 319 322 325 324 317 313 314 327 332 333 334
307 300 304 308 310 307 304 307 302 299 298 298 296 296 298 295 298 299 299 298 299 298 298 297 298 299 295 295 294 293 293 296 293 292 293 293 295 297 299 300 299 298 304 307 305 299 295 293 291 289 285 284 287 289 295 296 293 290 293 294 294 296 298 298 296 294 290 294 292 295 299 298 300 304 306 311 318 318 321 323 325 328 329 329 319 323 332 333
310 300 301 298 305 303 301 302 301 300 296 299 295 297 294 296 297 298 300 295 299 297 298 297 296 294 294 294 293 292 294 293 296 294 294 293 295 297 300 300 299 301 305 302 303 297 293 288 290 291 290 290 291 291 293 294 290 291 291 291 294 295 296 296 293 291 297 293 287 299 299 297 299 303 305 307 317 317 320 323 324 326 329 330 331 332 334 332
299 303 305 305 297 293 297 296 301 299 300 299 297 300 294 295 294 292 298 299 299 299 295 298 298 297 296 294 294 291 293 292 295 293 295 296 295 297 295 299 297 301 301 298 301 296 291 286 290 290 289 291 292 292 293 292 292 292 292 292 292 293 293 292 293 296 297 293 290 297 299 298 300 304 306 309 317 317 321 322 324 329 330 330 330 330 331 334
307 307 305 308 301 300 300 300 302 299 298 299 297 297 295 295 294 296 295 295 297 297 298 293 294 296 297 297 299 294 296 289 290 295 296 295 294 294 292 296 298 299 298 296 297 299 293 288 291 291 289 290 291 291 292 291 291 292 292 293 293 293 293 294 294 295 295 294 296 297 298 299 302 305 308 312 319 321 322 324 326 327 327 327 328 328 330 331
302 302 301 307 305 302 302 301 301 299 296 300 296 295 296 295 294 296 298 295 293 296 299 295 294 296 296 297 297 293 294 295 295 291 297 296 293 295 293 295 292 297 297 294 295 298 292 288 294 292 288 288 291 293 292 292 291 290 291 292 292 292 293 294 294 295 298 296 297 298 298 299 306 308 315 319 320 322 321 323 323 324 324 325 326 326 328 330
308 311 311 303 299 301 303 301 299 299 295 297 295 296 297 296 295 296 297 300 296 295 297 294 297 296 297 297 297 297 299 298 298 297 297 296 290 296 292 295 297 294 297 296 298 297 295 289 293 290 286 286 290 291 291 292 291 290 289 291 291 291 290 292 292 295 295 294 296 296 295 297 305 313 317 320 321 320 318 319 319 320 321 323 323 324 325 326
312 313 313 308 300 305 302 301 300 299 292 295 297 297 296 297 298 298 294 301 299 300 300 297 296 296 296 296 296 297 300 299 298 298 298 298 298 297 297 297 296 293 295 293 297 292 293 291 288 287 284 285 290 291 290 290 289 286 287 290 292 292 293 294 295 297 297 297 293 291 294 302 306 315 316 317 319 318 318 317 316 317 319 320 321 322 322 323
Wind_Speed
23 23 21 21 20 20 19 19 19 19 19 18 18 18 18 18 18 17 16 15 14 13 13 14 14 13 12 11 10 9 7 6 7 6 9 14 8 5 5 5 12 11 8 2 4 6 8 8 9 9 8 7 7 9 9 13 7 4 2 1 3 4 2 2 2 3 3 6 3 6 4 7 7 9 7 4 3 1 13 10 7 3 11 13 16 20 19 19
23 22 23 23 23 22 23 21 19 19 19 19 18 18 18 18 18 18 17 16 15 14 13 12 13 12 12 10 9 7 5 6 8 10 16 11 11 16 7 8 7 8 4 3 6 8 8 9 10 10 8 7 8 8 8 2 7 5 3 4 6 4 4 3 2 4 3 3 5 3 2 2 8 8 2 2 2 3 7 12 9 10 15 14 17 19 20 19
24 24 24 24 22 21 21 21 20 20 19 18 18 18 18 18 18 18 17 17 16 14 14 12 11 12 11 9 6 5 4 6 8 11 15 20 25 10 10 10 9 9 7 6 8 10 10 9 10 10 8 7 7 8 10 6 9 9 6 5 6 6 3 3 5 4 7 4 5 6 3 7 4 5 3 3 6 2 2 10 9 15 20 20 20 19 19 17
25 25 25 25 24 24 24 22 22 21 20 19 19 18 18 18 18 18 18 17 16 15 14 12 11 10 10 8 5 4 5 7 4 3 1 10 19 17 13 12 11 9 4 7 7 10 11 10 10 12 9 9 8 10 8 8 6 6 7 6 3 8 3 6 5 6 6 5 6 4 6 5 2 2 2 4 6 2 4 2 8 19 23 21 20 20 18 18
26 26 25 25 24 24 23 22 23 21 22 19 19 18 18 18 18 17 18 17 16 14 13 11 10 10 8 6 3 2 4 3 4 4 4 6 8 12 12 11 13 7 8 3 5 11 11 10 11 12 9 5 8 6 8 10 10 5 8 12 5 6 6 5 7 8 9 4 7 6 5 5 1 3 4 4 7 5 4 4 10 19 21 22 22 20 16 19
25 26 26 25 26 24 24 23 23 22 21 20 20 19 19 19 17 17 17 17 15 13 12 10 9 9 8 2 3 4 2 5 2 4 8 10 11 12 12 9 10 5 5 7 7 6 8 9 12 10 7 6 6 8 8 11 9 7 6 8 10 9 6 8 9 9 9 5 9 6 7 6 4 5 7 8 6 5 6 3 16 17 19 20 18 18 17 19
26 26 26 25 26 26 25 25 23 22 21 19 19 18 19 19 17 17 15 15 14 12 10 9 8 7 5 1 4 4 3 8 7 3 8 9 8 10 9 8 7 4 5 7 9 7 8 11 11 9 7 8 9 10 13 11 13 8 4 3 10 7 11 13 12 13 9 10 7 4 9 7 7 4 7 5 6 4 6 4 7 18 18 18 19 17 17 17
26 25 25 26 26 26 26 24 23 23 22 20 19 19 19 19 18 17 16 15 13 11 9 8 7 5 3 4 2 3 4 6 6 7 9 8 7 8 10 7 7 6 7 10 9 11 9 10 11 7 7 7 7 10 10 12 9 9 8 10 9 10 9 13 12 12 12 11 9 10 10 12 11 8 5 8 9 7 6 4 7 19 18 17 18 16 15 16
26 26 26 26 26 25 24 24 24 23 22 20 18 17 18 18 17 17 17 14 11 10 8 7 6 4 1 2 3 6 4 6 8 10 11 9 9 9 8 7 9 9 7 8 9 10 8 8 11 8 6 11 10 11 9 8 6 6 8 8 9 10 10 11 11 14 12 8 9 10 8 7 11 7 5 6 9 8 7 5 14 16 17 16 18 15 15 16
26 26 26 27 26 26 25 25 24 24 22 20 19 18 18 17 17 17 17 14 11 9 7 5 4 1 2 3 4 3 1 6 3 13 13 12 11 10 9 7 11 9 8 9 8 10 11 9 9 7 10 11 8 7 8 7 5 4 8 8 9 7 12 13 14 12 12 8 13 11 10 7 7 7 2 5 11 12 9 12 14 16 15 16 17 15 14 16
27 27 26 26 26 26 26 25 25 24 22 21 21 19 18 17 16 16 16 15 10 9 6 4 1 1 3 5 4 4 2 2 2 4 2 5 10 8 9 8 11 9 9 7 10 10 11 14 12 5 6 5 3 8 8 6 7 9 9 12 5 8 14 13 11 13 9 7 12 9 10 7 4 3 4 8 11 12 10 16 16 13 16 13 16 13 13 13
28 27 27 27 27 26 26 27 25 24 23 23 21 20 19 19 16 15 16 13 11 7 5 2 3 2 5 5 5 8 7 4 1 3 3 4 6 7 7 8 11 8 9 8 10 10 11 12 12 8 4 5 9 6 8 10 6 9 7 8 7 5 2 11 14 16 11 5 13 11 10 8 6 6 6 10 12 13 11 13 14 16 13 14 14 13 11 11
28 28 28 27 26 26 28 26 25 25 24 23 20 20 22 21 20 16 14 13 7 5 4 2 3 4 4 4 8 12 11 2 1 3 4 3 4 6 7 8 11 9 9 8 9 11 11 10 10 10 8 10 6 4 5 8 5 7 6 4 5 4 4 13 12 16 15 9 17 13 3 5 10 8 11 9 10 11 13 12 10 14 13 11 14 14 11 9
28 28 27 27 26 26 26 26 26 26 24 23 22 21 22 23 22 18 12 12 11 7 5 4 3 4 4 5 5 2 2 2 3 2 4 6 5 9 5 6 9 8 7 9 11 7 9 8 9 9 6 8 5 8 9 7 7 6 5 2 3 1 5 7 8 17 14 17 19 12 4 5 7 11 13 11 9 12 13 14 11 14 13 11 11 11 13 17
28 27 27 27 27 27 26 26 25 26 23 23 23 23 23 24 22 18 13 10 11 7 5 3 4 2 3 6 8 8 4 3 4 7 4 4 5 4 7 4 6 10 9 9 8 8 9 7 7 7 5 4 7 7 6 4 4 6 1 4 2 6 3 10 11 16 15 13 24 16 4 7 10 11 16 13 11 12 13 12 10 11 12 13 13 12 12 16
23 25 27 27 28 27 27 27 27 26 25 25 25 27 26 22 18 16 10 10 6 0 3 3 5 5 5 7 2 4 1 4 2 4 3 1 4 6 8 7 4 6 8 9 7 6 7 7 6 3 5 5 7 3 4 4 4 4 4 2 6 7 7 8 12 10 16 13 15 15 4 7 5 11 14 14 14 13 11 12 13 12 13 12 12 11 10 14
24 26 26 27 28 27 28 27 28 27 27 26 26 27 26 18 15 11 5 6 6 6 4 3 0 7 3 1 3 5 2 1 1 2 4 3 4 7 4 8 7 6 6 6 7 6 6 6 0 3 4 4 3 4 4 5 4 4 4 6 6 6 8 9 7 12 11 20 14 16 10 8 8 10 13 15 14 14 11 10 13 10 11 12 11 12 12 13
24 26 26 28 29 28 26 27 28 26 27 28 24 22 21 25 7 2 3 3 3 5 6 6 5 5 8 8 7 2 3 2 2 0 5 1 6 5 7 4 4 6 6 7 8 8 5 4 1 3 3 6 5 5 8 8 6 6 5 8 8 9 9 7 7 8 11 18 17 15 10 10 11 13 15 16 15 13 12 11 13 7 11 13 12 12 12 13
28 26 25 26 26 26 26 25 28 26 25 27 21 21 17 3 3 3 2 3 2 1 1 4 4 2 3 2 5 6 3 3 3 4 3 6 5 3 5 4 3 6 6 5 4 8 4 4 3 3 6 7 9 8 7 5 7 10 10 6 8 8 7 10 12 9 9 14 15 18 12 13 14 12 14 14 14 13 11 8 10 6 9 10 12 12 11 12
28 26 27 26 24 25 25 24 26 25 21 19 14 13 4 5 2 1 1 5 6 7 10 8 9 8 9 2 4 5 5 5 3 5 6 4 1 5 6 4 6 5 5 6 5 10 4 6 6 7 7 7 8 11 11 10 12 13 11 10 8 7 7 12 11 11 11 12 15 18 13 17 16 15 14 14 13 11 11 10 9 9 9 6 9 13 11 13
25 26 24 24 25 25 25 24 25 25 17 9 8 4 6 7 7 5 10 8 9 10 12 13 8 4 6 3 6 4 4 3 6 4 2 3 4 3 3 5 4 5 5 6 6 6 7 6 7 8 9 9 9 9 12 13 13 14 11 10 9 9 9 7 10 11 7 5 12 16 15 19 19 18 17 15 14 14 13 12 10 11 12 8 8 14 10 11
27 25 24 23 25 26 27 26 25 23 18 6 2 3 3 4 1 3 3 6 12 14 12 13 5 7 4 4 4 2 5 6 9 3 2 1 3 3 5 6 5 5 6 6 6 4 7 8 7 10 9 9 10 11 9 12 12 12 9 7 7 8 9 11 10 5 6 7 10 15 15 17 19 18 18 17 17 15 15 15 14 13 13 10 9 11 8 5
26 25 24 25 25 27 27 29 26 24 6 1 2 5 3 4 4 4 3 6 11 12 11 9 6 6 7 2 2 5 4 6 3 8 4 1 4 6 4 5 5 5 7 9 7 5 6 7 10 10 10 11 10 11 11 10 9 8 6 5 7 8 8 6 9 7 1 3 4 18 14 13 17 16 17 17 18 15 16 16 13 12 14 14 13 12 12 8
27 28 25 24 25 27 29 29 26 9 2 5 8 6 2 3 4 6 6 3 6 10 10 7 7 6 5 1 3 2 2 2 5 6 1 2 4 2 4 6 6 6 6 8 11 8 7 7 15 14 11 11 11 10 10 8 7 6 8 7 6 8 9 8 6 9 10 6 7 9 9 9 12 13 13 14 15 13 14 16 13 12 11 12 11 10 12 11
26 25 25 25 23 27 30 25 7 6 12 12 6 1 5 4 6 5 4 3 4 6 7 7 2 2 3 1 3 0 1 4 6 4 2 2 3 2 2 4 4 4 7 9 10 11 11 12 8 13 13 11 10 9 9 8 7 6 6 8 9 10 13 12 9 9 6 8 6 9 2 8 13 20 18 14 12 13 13 16 15 15 12 11 11 11 10 9
25 24 24 25 23 25 30 7 3 9 13 5 7 7 5 3 5 3 2 2 4 2 3 5 3 3 3 2 1 3 3 5 2 4 2 3 2 1 3 4 2 6 8 7 8 4 7 10 12 12 10 12 11 9 8 8 7 6 5 8 11 10 11 12 12 7 5 4 7 1 8 2 14 14 15 16 16 16 14 17 16 14 14 14 13 12 12 11
23 24 23 24 21 20 11 4 7 12 7 6 8 9 7 5 3 4 1 2 3 4 5 4 5 1 1 3 3 1 4 2 6 1 1 5 3 3 4 6 4 4 5 4 3 4 4 7 8 11 11 7 10 9 9 9 6 6 5 11 3 9 10 10 9 7 6 4 9 6 2 4 7 13 17 20 19 18 18 17 17 16 16 16 15 14 13 13
23 22 23 23 25 10 6 8 10 7 7 8 7 7 7 4 2 1 1 1 2 4 4 1 2 1 1 5 4 4 2 1 3 2 2 5 2 3 3 6 7 9 7 3 5 6 6 6 8 7 8 9 5 7 8 10 7 2 6 10 9 10 6 10 11 6 3 4 8 8 6 3 2 10 16 18 15 16 17 17 18 18 18 19 19 16 14 15
23 22 21 22 24 28 8 7 4 7 7 10 8 7 7 5 6 1 2 3 1 1 5 4 3 3 3 1 4 5 6 3 5 4 2 1 4 1 2 4 5 8 7 6 6 8 8 3 3 5 7 6 6 8 3 9 9 7 12 9 8 7 7 7 2 2 2 3 8 6 1 3 4 4 13 14 16 19 16 17 20 19 20 18 17 17 15 13
23 21 19 19 17 8 3 5 6 11 10 10 7 8 8 6 2 2 2 2 4 3 3 2 3 4 3 5 3 5 6 5 3 7 5 2 5 2 3 2 5 5 6 6 8 8 10 13 10 4 5 6 5 5 7 5 4 1 6 10 8 6 5 2 2 2 4 2 7 9 4 2 4 3 10 17 16 18 17 13 13 15 16 17 19 19 16 15
24 23 20 13 5 4 6 6 10 10 6 4 6 8 6 2 1 2 2 3 3 5 2 5 4 3 6 5 3 6 4 4 1 2 4 4 4 7 1 3 2 4 5 5 6 8 11 8 7 3 7 4 2 5 6 8 7 2 3 4 2 4 5 4 1 4 1 2 3 7 4 4 5 5 4 7 10 23 21 21 20 19 20 19 17 17 18 17
25 25 23 10 9 4 4 4 4 9 5 6 6 6 2 2 2 2 2 5 2 3 3 5 2 4 1 3 4 7 2 7 2 1 2 2 2 5 5 4 3 1 4 4 5 4 10 9 2 7 3 6 1 5 5 3 7 8 1 1 3 1 3 3 2 3 3 3 2 6 8 4 9 8 11 10 3 22 23 20 22 22 21 20 19 20 17 17
26 26 26 14 9 6 9 13 9 8 9 6 5 4 3 2 2 3 4 3 2 6 3 3 5 6 4 4 3 5 7 2 1 3 6 3 4 6 7 5 3 1 1 3 7 5 5 9 6 5 6 3 4 4 1 5 3 1 1 1 2 2 1 2 2 2 2 2 6 9 6 8 1 4 11 12 15 9 18 17 20 23 23 22 21 19 18 18
26 27 9 5 7 9 8 7 7 7 6 4 3 4 5 4 0 8 9 8 5 4 9 8 3 2 4 3 3 3 0 5 4 2 2 4 5 2 7 14 17 11 5 4 2 4 4 6 6 5 4 5 7 7 5 4 5 5 2 3 3 1 2 3 2 3 4 7 8 15 7 3 5 4 4 11 12 6 18 21 18 21 22 22 21 20 21 20
29 21 10 8 7 10 13 11 9 12 6 3 4 3 3 0 2 7 6 8 6 9 9 3 5 3 5 5 2 4 4 2 4 4 3 3 2 5 5 8 13 11 8 3 7 2 8 6 5 9 12 6 8 8 8 8 7 3 7 5 5 7 1 6 2 2 2 1 2 5 5 7 8 7 12 10 16 16 9 23 19 17 16 17 16 18 19 19
18 7 7 7 6 9 10 8 9 11 3 3 3 2 1 6 5 6 4 8 8 8 10 10 5 5 2 2 3 7 3 1 3 2 2 5 2 5 8 6 10 13 8 4 3 4 6 5 6 14 16 4 6 5 9 3 3 1 4 6 8 4 5 2 5 11 8 5 6 3 5 6 3 7 8 11 13 16 13 16 21 19 19 20 19 19 19 18
8 9 5 7 9 3 9 10 4 1 2 4 4 2 2 4 9 8 7 10 9 10 8 6 3 2 5 5 5 7 3 2 2 2 1 2 5 10 12 11 9 11 11 5 3 7 3 12 14 9 17 12 13 10 8 11 7 3 3 4 6 6 4 2 3 2 4 3 2 2 4 3 8 5 8 8 10 14 18 9 24 21 20 21 19 18 20 19
8 7 8 8 9 1 6 2 3 3 4 3 3 4 4 6 10 11 8 9 8 8 5 3 5 6 1 6 4 2 4 0 2 2 3 2 6 10 9 6 11 12 12 9 3 5 8 8 8 6 9 15 21 17 6 7 11 9 9 5 3 2 6 3 1 3 2 3 1 4 7 8 4 3 9 14 11 13 15 8 22 20 20 21 20 21 21 20
5 3 4 1 1 7 3 3 1 3 3 4 2 3 9 9 7 10 8 8 5 6 3 8 6 6 12 4 7 7 2 3 2 5 5 6 5 9 10 7 10 12 10 9 4 4 4 3 10 3 13 16 15 6 3 1 8 10 6 7 2 4 5 3 1 2 2 2 0 3 5 6 4 2 15 16 16 11 13 7 24 22 23 22 18 18 16 15
3 3 2 3 4 6 4 3 2 2 3 2 3 6 7 9 8 11 7 8 6 5 5 7 9 8 7 7 13 7 7 3 2 2 3 2 7 11 13 10 9 10 13 10 4 6 3 1 6 13 14 13 6 5 9 14 9 2 4 4 1 2 1 4 1 2 3 3 3 2 3 3 8 5 3 5 8 9 11 7 20 19 22 24 18 18 17 17
4 2 1 1 3 1 3 4 3 3 3 2 8 7 8 6 7 9 6 7 4 5 5 4 3 4 7 7 9 11 5 7 5 3 4 8 7 3 10 10 9 11 7 7 9 9 3 4 5 11 10 7 9 12 16 18 12 5 3 7 8 6 3 3 5 2 5 3 3 4 6 7 12 6 8 4 2 12 8 5 15 20 22 20 20 20 19 17
3 3 5 2 3 2 4 5 2 2 2 5 6 6 6 3 7 14 11 5 6 5 2 5 3 5 8 7 9 7 7 5 6 7 8 6 11 8 7 11 10 10 8 5 7 9 5 2 5 9 7 9 15 22 19 14 13 13 6 7 6 8 3 3 4 2 6 3 11 5 1 10 10 3 10 13 11 3 5 8 5 22 24 23 20 22 21 20
3 5 1 2 3 4 4 4 5 2 3 4 6 8 7 8 9 10 11 13 6 7 5 5 12 10 12 10 11 7 9 3 7 7 7 8 10 12 10 13 10 11 6 7 9 9 11 1 6 9 10 10 13 14 14 9 10 8 7 5 4 6 12 7 3 3 1 5 2 2 4 5 15 5 9 10 16 24 9 12 7 14 23 22 22 25 20 18
5 5 4 5 4 3 3 6 6 5 3 6 8 10 9 8 9 9 9 11 9 8 10 9 9 9 8 10 5 9 10 2 9 12 6 9 3 11 21 17 16 7 8 3 4 9 4 3 5 6 6 8 10 8 8 8 10 9 8 9 15 13 13 16 7 3 1 4 9 3 5 4 10 12 16 12 14 19 23 11 9 6 14 11 21 21 18 18
6 4 5 3 2 3 3 4 7 4 7 8 7 8 8 6 8 10 9 10 10 8 8 9 9 4 7 7 9 5 8 9 3 8 12 8 8 9 19 17 14 10 10 9 9 5 1 4 5 3 3 4 4 2 5 9 12 11 8 16 14 16 18 15 9 6 2 3 7 1 5 9 14 18 14 16 16 20 18 20 17 11 5 5 16 15 22 20
2 3 5 2 5 3 4 3 7 7 6 8 7 7 9 7 7 10 8 9 9 9 6 6 11 9 11 9 6 10 12 9 7 5 7 7 7 6 13 13 12 8 12 16 10 4 1 2 2 2 4 7 8 8 7 10 10 10 18 17 15 15 14 8 5 3 5 6 4 3 1 14 15 17 18 19 16 18 20 24 21 19 22 23 8 11 20 17
4 2 5 5 5 9 7 7 6 6 7 7 1 5 8 5 8 7 7 5 6 7 6 9 6 8 5 7 10 8 8 8 9 7 6 9 9 9 11 9 9 9 11 7 7 4 2 3 6 6 10 11 12 14 15 13 13 13 15 19 16 13 8 7 3 4 3 8 8 2 10 14 11 14 15 14 12 15 17 17 17 16 18 16 21 27 6 20
1 5 3 3 2 4 5 6 6 6 10 10 2 1 4 6 8 6 4 7 9 9 6 3 10 12 12 10 7 5 7 7 3 2 6 5 7 7 9 10 9 9 6 3 6 4 3 5 7 9 12 12 13 14 14 13 11 11 14 15 16 13 12 10 7 8 6 3 8 7 10 14 10 13 15 9 7 9 13 12 12 16 16 18 20 18 25 20
3 4 6 10 2 4 5 6 9 12 10 9 3 11 7 6 8 9 5 6 4 3 7 2 8 10 8 5 1 1 1 3 4 5 2 2 4 5 4 3 1 7 7 4 4 0 3 4 8 9 13 13 13 13 13 14 12 14 14 13 14 14 12 10 10 10 11 10 12 10 12 15 8 10 14 9 7 8 9 10 15 18 19 19 18 18 19 17
5 5 4 10 5 5 7 5 7 7 6 8 4 7 8 11 12 11 9 9 6 9 7 4 10 7 6 8 6 3 7 5 3 4 4 3 5 3 3 2 2 1 2 4 4 1 2 3 11 11 9 10 11 12 11 11 11 14 15 14 15 15 13 12 11 10 10 10 13 7 9 11 4 6 7 7 6 6 12 17 16 13 16 17 17 18 18 17
2 2 2 3 4 3 5 5 4 5 5 6 4 6 5 9 8 6 5 6 7 3 2 7 2 6 1 2 3 3 3 4 5 6 6 7 5 3 3 1 1 2 2 2 0 3 2 4 6 6 8 9 9 11 12 11 12 14 15 14 12 12 13 8 7 5 5 7 11 11 9 7 3 5 6 7 10 12 13 14 12 12 14 14 16 17 17 17
6 5 5 2 2 1 1 7 3 3 6 4 4 6 5 5 6 8 5 1 3 4 4 7 11 9 2 4 3 4 6 6 7 8 5 6 5 6 5 6 6 4 2 3 2 4 2 2 2 3 6 8 11 13 14 14 12 11 10 9 9 11 12 13 12 12 11 10 12 9 9 3 6 5 5 5 7 10 12 11 11 13 12 12 14 15 15 15
Wind_Direction
356 356 355 352 351 349 344 342 339 338 337 334 331 326 326 325 323 321 319 315 311 308 306 307 308 309 306 308 307 308 317 298 303 262 228 243 231 187 89 55 168 168 175 190 212 232 184 202 215 210 218 226 230 237 240 216 167 121 181 175 257 224 241 245 351 74 86 110 155 164 307 307 127 140 141 159 276 196 125 125 103 205 141 142 136 143 147 145
354 354 353 351 350 348 346 343 338 337 336 333 329 327 325 322 321 318 317 315 312 308 306 309 309 307 311 308 306 310 314 282 277 263 238 245 212 242 221 131 133 163 164 224 217 218 203 193 207 203 216 221 215 235 219 222 182 156 193 162 231 190 227 129 90 61 87 93 121 261 189 352 50 56 353 134 318 42 136 128 154 162 131 146 140 145 149 150
353 352 352 351 348 344 344 341 337 338 335 332 328 328 323 322 319 318 316 314 312 307 306 308 310 307 308 306 300 295 289 292 262 254 260 231 243 232 194 161 156 158 173 200 213 218 216 189 195 202 208 233 216 228 203 216 194 194 221 217 224 213 153 139 120 108 107 131 143 166 49 72 329 81 222 104 170 174 204 139 165 143 142 151 147 147 151 150
351 350 350 349 346 345 344 339 338 336 334 334 331 325 324 320 317 318 317 314 310 309 309 311 309 307 306 303 295 299 278 273 264 228 178 198 210 207 184 167 163 168 193 229 239 229 231 209 198 201 204 220 222 224 214 214 219 178 212 238 213 173 154 155 123 121 97 116 124 138 106 60 75 85 221 185 136 138 253 252 166 145 147 149 148 151 158 147
350 349 348 346 344 344 341 338 337 335 335 332 329 326 323 323 321 319 316 314 312 310 311 311 308 306 303 293 316 300 290 308 87 98 166 128 142 176 182 169 163 166 188 228 253 266 277 276 212 199 224 218 236 239 233 228 220 234 211 225 186 164 147 124 135 135 122 153 134 134 116 109 247 72 206 183 141 204 206 238 165 148 150 151 152 155 156 150
349 347 346 345 343 342 341 337 337 333 334 332 331 325 323 322 320 319 317 314 313 313 311 308 309 301 299 341 276 251 307 74 158 131 172 175 182 185 184 173 171 173 189 215 221 247 255 256 256 201 200 246 230 224 216 231 210 233 248 257 154 161 133 157 149 137 160 167 142 149 136 119 88 299 231 198 185 197 198 196 156 151 151 149 150 155 156 153
349 347 345 344 343 341 340 337 332 332 333 331 328 325 323 322 320 318 318 316 313 314 311 310 310 303 296 351 242 251 259 278 302 192 166 179 175 155 166 151 141 156 210 206 215 226 233 250 254 214 200 217 237 257 260 227 217 230 238 299 144 169 149 169 152 155 150 133 125 128 121 104 143 248 229 225 213 212 194 268 154 147 150 152 151 164 158 151
347 346 344 343 341 339 338 334 330 331 331 330 329 324 324 322 321 317 321 318 318 317 318 312 306 301 309 257 239 218 215 269 190 162 172 161 164 151 148 152 155 166 201 211 198 217 236 252 239 218 223 212 214 229 248 263 248 207 218 229 180 179 169 161 155 149 144 130 135 133 154 162 185 185 224 205 180 155 174 203 176 145 152 153 153 165 156 149
346 345 343 342 339 337 334 331 330 330 329 329 324 322 323 320 317 318 320 318 321 322 321 313 302 287 267 303 260 303 243 231 128 164 157 155 156 154 158 157 183 171 197 211 220 222 217 248 248 213 209 217 244 265 249 251 257 261 266 226 186 175 150 159 138 152 145 133 144 155 179 168 183 163 199 154 147 159 158 188 140 141 150 155 160 168 159 154
344 343 342 341 339 336 333 331 329 327 328 327 326 324 321 317 317 315 318 317 321 325 320 310 293 256 260 259 271 263 304 262 148 153 159 164 151 150 195 184 166 181 191 210 216 230 229 242 244 204 250 276 277 259 295 281 276 272 243 238 242 136 155 160 142 160 151 149 155 166 176 194 176 179 142 153 145 157 170 152 144 149 157 159 167 166 161 160
343 342 340 339 337 335 331 330 328 327 326 327 323 320 320 316 314 312 315 311 312 318 316 301 84 265 262 237 281 267 210 239 38 319 137 135 146 163 199 216 166 185 204 204 219 223 236 251 256 245 237 253 250 253 251 264 310 298 319 321 285 161 162 160 143 152 146 159 147 151 143 202 187 207 163 178 160 164 170 154 160 159 154 167 169 166 162 163
342 341 339 337 336 333 331 330 326 325 326 325 323 318 318 316 310 308 307 305 302 302 288 283 197 247 274 272 246 235 283 345 197 249 141 164 182 191 189 213 169 197 196 207 216 233 242 256 265 261 252 150 240 282 284 282 283 291 286 286 305 318 122 159 167 164 174 149 151 154 127 165 187 215 161 165 160 175 168 159 167 152 161 165 165 168 172 167
341 340 338 335 333 332 331 328 326 324 324 324 321 318 316 312 306 303 298 298 281 321 289 259 211 246 286 269 225 228 250 318 335 47 303 243 210 166 194 209 174 200 209 224 216 223 241 249 264 274 263 273 299 262 334 298 251 275 284 232 276 279 271 181 182 167 170 160 156 150 124 222 187 194 151 157 154 162 151 161 176 151 165 168 164 170 157 159
339 339 336 333 331 331 329 327 325 323 323 323 321 316 313 306 300 296 284 268 273 264 259 233 237 263 267 260 287 271 258 277 141 268 202 233 257 171 206 229 173 191 215 234 248 254 241 227 257 269 280 275 281 341 322 324 317 228 237 256 211 283 248 243 220 162 191 152 159 163 123 241 196 180 160 171 163 170 163 164 178 156 165 166 168 167 155 164
338 336 334 332 331 330 328 326 324 322 323 324 321 315 308 303 297 293 282 269 250 241 240 221 217 251 220 265 256 235 78 2 258 204 196 220 204 176 191 199 220 179 203 233 251 262 270 250 231 250 261 291 281 283 301 287 295 305 265 256 268 195 217 248 228 180 179 163 169 182 169 198 200 159 167 166 177 176 170 162 159 163 172 161 169 170 160 166
335 333 333 332 331 330 327 326 325 322 325 324 324 315 306 297 289 293 277 247 253 154 218 264 200 230 308 277 281 49 84 218 231 347 120 216 270 265 167 197 205 218 201 209 240 264 278 305 238 219 264 264 277 276 297 312 282 268 245 232 227 187 226 233 240 224 188 162 166 176 114 134 195 161 167 164 178 169 176 156 166 175 166 153 161 170 161 166
333 333 332 330 330 328 327 325 323 323 325 324 324 313 304 284 278 292 274 232 226 201 202 241 145 172 319 36 315 248 248 91 287 240 214 175 294 281 247 167 193 212 202 242 221 234 268 271 179 240 234 247 214 208 245 256 254 259 197 239 247 226 197 232 227 229 189 157 169 174 138 182 167 178 166 167 177 169 178 168 171 175 168 164 164 168 169 170
333 332 330 331 329 327 325 323 321 324 324 322 322 302 296 293 293 288 209 195 215 215 220 238 257 288 247 261 293 343 134 320 7 348 278 243 188 251 283 172 163 210 181 219 226 229 178 235 207 236 176 220 247 224 193 213 190 229 218 210 225 247 250 249 227 202 208 164 161 173 146 172 157 172 172 173 177 172 176 169 178 160 167 161 160 173 176 171
334 330 329 329 324 323 322 320 319 324 325 319 310 299 274 71 141 233 266 155 172 146 203 159 200 151 348 310 223 255 74 66 258 291 186 235 156 283 293 293 215 179 199 206 163 213 160 256 189 235 239 194 212 231 234 244 239 225 233 208 216 216 216 237 250 260 211 163 159 166 161 163 157 172 168 170 171 176 177 166 164 157 157 163 163 175 176 171
332 329 330 326 323 321 319 319 317 320 333 331 350 340 334 345 27 91 231 214 241 256 291 279 196 231 254 282 312 32 272 236 268 217 250 150 177 170 250 232 214 200 195 197 171 199 170 202 209 209 224 231 209 216 243 258 266 278 288 288 275 268 241 217 232 238 234 173 164 166 166 153 165 172 172 173 164 167 177 172 152 165 173 169 164 175 180 171
328 330 327 324 324 320 318 319 316 314 327 313 300 314 9 16 347 1 336 291 269 264 263 262 259 320 310 307 273 343 356 264 216 200 73 94 233 137 180 222 198 199 222 209 227 166 220 217 219 221 217 230 248 218 215 241 262 275 282 293 301 301 284 264 224 225 235 175 156 161 169 152 162 169 171 168 165 172 181 178 165 167 179 171 169 172 180 168
331 328 326 325 324 322 319 320 315 312 316 255 262 292 335 40 258 264 344 303 310 303 291 284 265 261 255 250 323 277 246 271 220 214 136 174 164 206 139 225 181 219 183 237 253 186 202 224 225 225 232 229 231 252 242 220 234 248 258 280 287 282 294 291 283 251 209 195 176 167 172 155 161 170 166 170 173 178 183 179 175 167 173 175 173 164 165 159
330 327 326 326 327 324 323 317 317 312 310 203 232 251 29 338 5 352 298 287 273 269 281 263 226 239 266 126 194 132 262 262 288 165 148 230 151 223 179 197 216 228 200 202 226 212 212 217 232 231 227 230 232 233 248 257 235 232 252 248 252 271 280 310 303 298 210 204 166 180 153 168 158 163 171 173 177 180 177 175 175 170 174 178 175 169 174 169
330 329 324 327 329 327 323 319 311 299 201 235 270 317 351 360 6 12 330 267 300 298 254 225 244 221 243 158 71 314 277 288 301 88 195 220 245 25 241 212 233 210 238 205 208 235 233 220 200 218 224 228 235 225 229 241 258 236 222 241 263 266 268 264 278 304 316 301 259 162 154 161 154 161 175 182 178 174 170 169 170 171 177 177 172 166 175 176
329 327 324 326 333 329 320 320 320 354 335 314 244 310 24 16 48 25 342 286 224 251 261 223 185 253 53 199 147 139 226 267 240 200 123 287 2 288 306 307 264 247 228 225 223 220 242 255 262 199 208 218 232 242 228 219 243 259 238 214 228 260 278 288 307 326 360 336 279 210 138 177 177 173 175 170 170 182 171 172 171 172 169 169 175 173 178 184
328 326 324 325 333 336 313 320 15 351 319 317 355 4 359 18 47 328 317 273 289 166 180 206 33 226 22 173 164 242 292 273 78 65 316 69 113 244 319 264 201 239 235 238 241 228 220 218 245 260 203 203 214 230 239 220 233 228 234 214 214 229 257 277 292 325 314 259 309 264 209 215 172 181 176 172 176 178 171 179 173 171 172 175 178 176 178 184
325 326 325 324 330 348 351 347 354 316 310 30 346 359 329 7 40 338 259 201 254 160 156 115 182 342 330 118 235 98 241 310 331 137 187 82 0 56 297 290 264 258 285 313 356 248 225 236 225 233 265 227 198 211 226 241 218 238 279 281 253 213 226 254 267 249 248 301 298 305 282 189 173 191 179 175 171 174 173 176 173 177 176 179 179 177 176 180
323 322 324 325 319 342 236 295 317 314 302 327 357 342 340 331 327 187 350 278 214 161 141 205 15 83 263 152 220 256 348 191 268 136 116 153 151 183 179 279 285 298 303 297 255 273 236 212 211 245 233 250 241 191 200 219 239 226 208 249 269 275 245 225 231 243 245 308 280 304 341 328 242 168 176 166 163 175 182 180 181 180 182 181 181 179 173 178
320 321 321 324 322 305 245 209 277 280 279 315 341 337 322 312 288 5 278 279 71 199 313 131 323 203 251 140 246 231 263 199 251 136 179 181 179 356 236 249 311 314 312 299 286 298 283 305 48 272 239 233 240 266 227 197 220 236 277 296 296 309 312 325 331 247 238 197 270 272 291 283 280 166 166 174 168 178 185 187 184 184 184 183 183 181 178 176
318 318 316 326 325 307 111 211 238 255 295 295 332 309 308 292 299 233 227 266 151 171 234 83 199 164 217 230 224 198 226 205 231 167 195 259 137 207 239 249 267 290 304 298 285 279 297 307 307 275 272 245 246 232 255 270 253 350 208 236 271 284 294 350 34 67 36 285 263 260 268 282 294 236 178 171 182 183 189 189 184 185 183 185 185 183 182 182
316 312 312 321 294 302 316 277 239 249 260 311 305 299 296 313 250 287 234 52 166 49 213 128 115 257 211 236 236 165 233 338 199 78 296 169 190 194 233 276 238 286 276 289 275 286 287 288 290 310 307 315 226 265 201 233 282 228 258 202 230 273 311 316 280 46 68 290 280 290 251 227 242 280 217 214 174 184 180 182 188 181 186 186 186 186 185 184
314 310 306 305 238 297 240 240 339 318 326 300 303 298 312 286 154 244 295 82 57 214 175 113 111 218 144 310 286 162 203 165 341 296 271 233 240 195 177 228 148 284 285 225 273 244 260 261 247 275 292 310 278 264 304 249 206 239 332 58 149 248 181 279 56 255 224 216 269 272 277 268 244 248 269 271 188 185 182 185 184 182 185 184 185 185 184 187
315 309 308 290 222 210 227 243 283 290 288 298 319 292 255 259 242 188 295 327 82 297 39 322 76 8 40 296 316 86 50 9 199 327 6 306 282 284 205 193 359 70 234 357 326 317 249 237 232 207 283 188 285 296 202 293 230 197 145 119 119 231 201 221 216 172 257 248 226 271 259 250 308 285 259 258 259 166 187 193 184 183 182 184 184 183 184 187
314 310 306 253 212 215 239 238 243 271 290 302 297 275 234 258 183 2 33 19 44 261 87 39 313 52 303 285 133 327 228 139 239 79 310 327 318 338 34 41 28 8 5 345 324 351 334 332 240 207 204 164 208 214 230 258 159 203 140 162 188 193 172 196 173 189 190 218 206 214 241 207 191 228 252 264 256 220 173 187 193 189 185 183 180 180 183 186
311 298 253 261 231 235 236 253 262 259 266 298 266 259 308 70 31 4 31 351 338 3 17 47 269 236 234 253 72 89 50 18 75 11 309 307 267 48 52 30 33 26 20 12 6 304 338 288 318 352 313 264 223 192 227 251 296 202 180 161 231 216 126 247 217 195 206 256 282 201 211 170 204 212 204 229 266 271 166 182 184 186 183 179 181 183 186 188
308 320 295 258 231 234 205 220 234 249 269 285 272 247 308 19 27 10 39 318 0 350 329 314 260 271 263 173 110 104 69 80 57 238 211 217 20 73 57 50 38 37 34 40 288 343 326 271 347 341 309 350 250 197 204 224 229 204 148 198 214 242 222 227 282 277 289 296 251 237 288 246 186 210 205 211 223 252 256 171 182 177 179 179 183 186 186 191
334 317 316 304 296 98 163 195 209 214 232 266 298 3 343 27 3 33 9 353 334 313 320 333 32 357 326 67 74 54 59 42 270 59 290 203 68 18 70 65 27 50 42 38 339 49 16 293 302 320 328 332 343 291 205 177 223 293 263 208 205 218 276 157 221 205 251 187 252 240 266 277 163 241 215 231 205 221 244 177 178 172 175 178 185 184 188 190
322 308 284 283 274 48 102 158 182 193 246 271 320 328 292 43 27 28 359 350 327 352 327 341 344 336 33 111 103 133 95 219 18 184 274 324 84 1 37 42 56 44 27 19 2 5 355 323 304 340 313 345 334 330 212 173 176 241 240 330 336 27 215 300 64 266 259 290 299 252 282 273 196 233 191 219 209 208 228 186 170 169 173 181 183 189 192 189
269 299 299 187 314 71 55 73 296 239 247 264 239 261 73 87 59 33 9 338 339 313 307 19 7 1 356 10 33 311 37 35 324 38 357 32 82 11 50 344 36 25 21 16 12 349 357 320 299 341 17 334 323 302 29 151 175 214 291 280 164 135 239 304 226 249 69 276 24 269 245 268 263 223 196 199 206 218 214 164 168 167 177 182 180 187 182 181
276 299 296 341 294 112 151 216 277 252 275 294 324 28 12 45 47 51 40 342 18 349 37 1 19 333 357 347 58 3 336 262 52 321 13 85 108 32 38 32 17 25 2 11 337 14 289 159 267 303 338 329 313 341 28 9 344 324 261 275 344 253 145 178 311 244 179 200 210 300 318 276 268 259 204 209 232 221 220 165 169 167 179 179 181 180 182 184
302 260 263 327 42 41 190 217 225 267 250 49 38 58 50 358 3 36 46 9 15 62 355 10 344 344 356 360 35 17 348 12 40 349 330 42 37 64 33 28 14 12 351 6 32 21 348 4 301 312 334 322 294 311 342 325 332 325 336 295 311 290 227 248 281 204 234 189 196 211 250 271 263 288 351 19 239 233 212 179 168 172 179 175 181 183 183 181
316 328 32 1 59 220 248 282 250 160 22 43 65 7 27 324 38 17 354 37 28 11 84 342 87 52 22 19 19 12 354 353 11 337 45 69 67 83 71 47 25 25 1 34 359 34 351 287 305 296 289 301 304 302 305 309 300 321 279 284 308 296 269 223 245 285 359 337 344 211 129 274 262 352 327 324 327 312 244 196 167 169 179 182 176 182 181 182
304 328 345 7 173 234 287 328 328 92 69 38 100 65 41 48 25 33 10 359 7 15 14 59 29 17 45 17 17 2 10 349 2 356 22 59 83 74 63 51 37 48 13 19 354 17 332 324 328 311 305 295 296 300 299 302 319 330 328 314 310 353 356 319 193 166 276 319 24 330 186 259 282 340 339 325 360 330 229 193 182 156 181 178 177 178 179 183
328 303 299 227 232 319 335 11 338 46 60 121 88 95 62 45 35 43 14 18 10 23 10 14 37 30 12 14 20 10 23 319 10 1 9 27 88 54 48 33 13 22 34 26 354 1 352 17 25 321 333 324 321 336 319 356 3 355 330 343 352 348 357 342 334 56 46 43 18 353 281 220 272 14 344 349 356 13 10 329 211 156 164 171 183 175 180 179
298 260 231 300 311 136 51 31 6 36 35 31 24 48 75 65 42 52 19 30 3 23 356 21 359 11 16 20 359 331 53 34 324 14 5 358 2 0 41 20 18 7 27 28 10 4 44 338 8 357 343 309 304 17 354 336 338 322 318 336 338 359 359 360 4 344 27 347 59 8 294 289 329 342 342 358 14 20 11 16 17 8 298 166 156 179 175 177
305 329 343 8 334 78 75 27 53 15 45 18 41 19 27 52 68 53 16 53 8 13 13 24 4 29 30 5 15 21 15 33 20 350 352 350 349 358 14 13 18 2 1 358 349 7 3 308 262 264 271 271 289 293 300 316 313 311 321 319 330 345 345 336 335 340 14 308 323 221 241 309 332 344 335 344 15 15 24 17 5 19 22 12 357 180 179 182
299 11 9 353 326 16 22 17 54 38 26 345 78 320 27 43 14 63 10 41 16 6 27 37 3 8 37 36 25 5 30 1 9 356 4 341 352 342 358 359 0 0 0 347 349 344 313 284 283 275 265 271 282 285 288 295 297 305 310 306 309 312 314 314 317 299 320 352 308 48 339 311 324 329 323 334 12 17 20 22 4 15 21 13 33 30 48 179
326 32 41 148 181 8 7 22 349 55 43 23 84 294 45 358 60 20 14 59 35 18 356 96 47 41 40 52 26 11 15 349 297 349 5 2 343 343 342 352 337 349 346 328 341 309 313 269 283 286 281 281 284 286 295 297 296 305 304 303 305 322 329 322 324 320 323 254 272 316 310 296 319 322 310 338 26 22 23 33 19 7 14 34 31 30 51 43
16 335 20 347 76 40 47 4 20 61 40 13 50 9 35 14 46 38 41 350 75 63 33 340 46 34 27 14 56 358 316 339 15 4 295 319 335 346 307 310 341 22 2 342 312 357 339 285 286 277 272 269 277 289 294 295 299 295 286 292 300 303 302 304 305 307 310 305 296 312 298 292 317 317 325 348 15 10 35 41 33 13 19 27 25 28 36 42
28 358 348 337 358 23 357 30 21 83 79 14 24 25 357 33 26 13 10 8 354 34 353 18 45 41 360 337 42 346 11 349 342 325 339 316 279 229 277 320 300 336 35 307 325 27 65 299 326 319 319 308 310 298 286 287 293 288 287 283 286 290 295 298 301 295 289 278 282 279 290 299 330 308 345 17 0 19 33 39 36 22 18 23 25 25 22 25
57 41 306 343 344 22 339 41 13 23 62 21 33 27 10 34 34 360 341 328 8 3 0 335 359 93 114 11 327 331 25 350 320 307 327 315 307 331 342 322 278 255 264 262 179 323 302 288 319 320 304 291 283 287 289 288 280 272 276 276 277 287 286 280 270 276 274 280 294 302 290 286 330 330 1 12 27 32 36 35 31 36 20 22 30 22 18 16
359 359 340 57 316 224 240 85 38 32 63 64 4 45 357 41 42 15 347 356 260 202 330 20 338 337 32 55 352 349 350 320 319 304 303 305 297 284 268 281 292 298 242 250 170 219 197 296 309 330 307 293 302 304 302 301 296 278 268 288 287 270 267 273 268 270 270 291 296 301 276 305 320 342 26 10 43 42 36 28 33 31 22 24 27 21 19 12